カタログに戻る

STARLINK-2591

運用中通信VLEO
NORAD 48361·PAYLOAD·🇺🇸 United States

打ち上げ May 4, 2021 から Cape Canaveral Space Force Station

Loading…

次のパス (今後24時間)

TLE

最新Source: CelesTrak SupGP

元期: Sep 14, 2026, 13:29 UTC

1 48361C 21038J   26257.56229167 -.00013223  00000+0 -42562-3 0  2577
2 48361  53.1587 199.1744 0001665 103.3336 318.8330 15.31677562    15

AllMySatでSTARLINK-2591をリアルタイム追跡

Download on the App Store